Захмет

Туркменистан     37˚46′07″N   62˚32′05″E
темп.,
°C
ветер,
м/с
пор.,
м/с
влажн.,
%
обл.,
%
осадки,
мм/ч
давл.,
гПа
погр.,
м
6 декабря, вс
вс623:00+1˚всв34360 0.0 103199
02:00всв46410 0.0 1031127
05:00всв454318 0.0 1030115
08:00−1˚всв464365 0.0 1031104
11:00+3˚в463232 0.0 1031346
14:00+6˚всв562937 0.0 1028487
17:00+6˚св683069 0.0 1027451
20:00+4˚св5931100 0.0 1028254
7 декабря, пн
пн723:00+4˚св4731100 0.0 1028277
02:00+3˚св5633100 0.0 1028240
05:00+2˚ссв4636100 0.0 1028235
08:00+1˚ссв3436100 0.0 1030250
11:00+1˚с3330100 0.0 1032338
14:00+3˚с442496 0.0 1030508
17:00+3˚с442498 0.0 1031607
20:00+3˚ссв462594 0.0 1032468
8 декабря, вт
вт823:00+1˚ссв462797 0.0 1033394
02:00с3429100 0.0 1033253
05:00с3330100 0.1 1034255
08:00−1˚ссв2334100 0.4 1035229
11:00с2131100 0.4 1036329
14:00+2˚ссз222693 0.0 1034603
17:00+2˚ссв332583 0.0 1034349
20:00св34300 0.0 1035192
9 декабря, ср
ср923:00−1˚в33340 0.0 103449
02:00−2˚вюв23350 0.0 103451
05:00−2˚в34350 0.0 103389
08:00−2˚в35360 0.0 1033122
11:00+2˚в34300 0.0 1033336
14:00+4˚всв33280 0.0 1031581
17:00+3˚всв45290 0.0 1030295
20:00+1˚всв45330 0.0 103095
10 декабря, чт
чт1023:00всв34350 0.0 103046
02:00в34360 0.0 102942
05:00в33380 0.0 103035
08:00вюв33430 0.0 103035
11:00+4˚в23380 0.0 1031286
14:00+6˚св33350 0.0 1030496
17:00+5˚св45338 0.0 1030334
20:00+3˚св343142 0.0 103166